Weather History for PABT - October, 2012

Change the Weather History Date:

Wednesday, October 17, 2012

  Actual Average Record
Temperature  
Mean Temperature 25 °F -  
Max Temperature 32 °F 24 °F 44 °F (2013)
Min Temperature 18 °F 11 °F -16 °F (1968)
Degree Days  
Heating Degree Days 40    
Moisture  
Dew Point 20 °F    
Average Humidity 72    
Maximum Humidity 96    
Minimum Humidity 52    
Precipitation  
Precipitation 0.00 in - - ()
Snow  
Snow 0.00 in - - ()
Snow Depth 1.00 in    
Sea Level Pressure  
Sea Level Pressure 29.82 in    
Wind  
Wind Speed 3 mph (North)    
Max Wind Speed 8 mph    
Max Gust Speed -    
Visibility 10 miles    
Events Snow    
Averages and records for this station are not official NWS values.
T = Trace of Precipitation, MM = Missing Value Source: NWS Daily Summary

Daily Weather History Graph

Daily Weather History Graph

Search for Another Location

Airport or City:

Trip Planner

Search our weather history database for the weather conditions in past years. The results will help you decide how hot, cold, wet, or windy it might be!

Date:

Astronomy

Oct. 17, 2012 Rise Set
Actual Time 9:15 AM AKDT 6:25 PM AKDT
Civil Twilight 8:20 AM AKDT 7:20 PM AKDT
Nautical Twilight 7:18 AM AKDT 8:22 PM AKDT
Astronomical Twilight 6:15 AM AKDT 9:24 PM AKDT
Moon 1:52 PM AKDT (10/17) 6:17 PM AKDT (10/17)
Length of Visible Light 11h 00m
Length of Day
9h 10m
Waxing Crescent, 8% of the Moon is Illuminated
Oct 17
Waxing Crescent
Oct 21
First Quarter
Oct 29
Full
Nov 6
Last Quarter
Nov 13
New

Hourly Weather History & Observations

Time (AKDT) Temp. Windchill Dew Point Humidity Pressure Visibility Wind Dir Wind Speed Gust Speed Precip Events Conditions
12:53 AM 30.9 °F 24.3 °F 16.0 °F 54% 29.68 in 10.0 mi North 6.9 mph - N/A   Overcast
1:53 AM 30.9 °F 23.5 °F 17.1 °F 57% 29.70 in 10.0 mi NNE 8.1 mph - N/A   Overcast
2:53 AM 30.0 °F 26.5 °F 19.0 °F 64% 29.71 in 10.0 mi NW 3.5 mph - N/A   Overcast
3:53 AM 28.9 °F 25.2 °F 19.0 °F 67% 29.73 in 10.0 mi NNW 3.5 mph - N/A   Overcast
4:53 AM 28.0 °F - 19.0 °F 69% 29.74 in 10.0 mi Calm Calm - N/A   Overcast
5:53 AM 27.0 °F - 19.9 °F 75% 29.75 in 10.0 mi Calm Calm - N/A   Overcast
6:53 AM 27.0 °F - 21.0 °F 78% 29.76 in 10.0 mi Calm Calm - N/A   Overcast
7:53 AM 27.0 °F - 21.0 °F 78% 29.78 in 10.0 mi Calm Calm - N/A   Overcast
8:53 AM 26.1 °F - 21.0 °F 81% 29.80 in 10.0 mi Calm Calm - N/A   Overcast
9:53 AM 26.1 °F - 21.9 °F 84% 29.82 in 8.0 mi Calm Calm - 0.00 in Snow Light Snow
10:53 AM 28.0 °F - 23.0 °F 81% 29.83 in 10.0 mi Calm Calm - 0.00 in   Overcast
11:53 AM 30.0 °F - 23.0 °F 75% 29.84 in 10.0 mi Calm Calm - N/A   Mostly Cloudy
12:53 PM 32.0 °F - 21.9 °F 66% 29.85 in 10.0 mi Calm Calm - N/A   Overcast
1:53 PM 32.0 °F - 21.9 °F 66% 29.85 in 10.0 mi Calm Calm - N/A   Overcast
2:53 PM 32.0 °F - 21.9 °F 66% 29.86 in 10.0 mi Calm Calm - N/A   Mostly Cloudy
3:53 PM 32.0 °F - 21.0 °F 64% 29.86 in 10.0 mi Calm Calm - N/A   Mostly Cloudy
4:53 PM 32.0 °F 28.7 °F 17.1 °F 54% 29.87 in 10.0 mi North 3.5 mph - N/A   Mostly Cloudy
5:53 PM 30.0 °F - 21.0 °F 69% 29.87 in 10.0 mi Calm Calm - N/A   Mostly Cloudy
6:53 PM 28.0 °F 22.8 °F 15.1 °F 58% 29.87 in 10.0 mi North 4.6 mph - N/A   Mostly Cloudy
7:53 PM 28.0 °F 24.2 °F 15.1 °F 58% 29.87 in 10.0 mi North 3.5 mph - N/A   Overcast
8:53 PM 24.1 °F - 21.0 °F 88% 29.88 in 10.0 mi Calm Calm - N/A   Overcast
9:53 PM 19.9 °F - 19.0 °F 96% 29.90 in 10.0 mi Calm Calm - N/A   Overcast
10:53 PM 18.0 °F - 16.0 °F 92% 29.91 in 10.0 mi Calm Calm - N/A   Mostly Cloudy
11:53 PM 19.0 °F - 17.1 °F 92% 29.91 in 10.0 mi Calm Calm - N/A   Mostly Cloudy